Weather Roundup
Issued by NWS

Home | Current Version | Previous Version | Text Only | Print | Product List | Glossary On
Versions: 1 2 3 4 5 6 7 8 9 10 11 12 13 14 15 16 17 18 19 20 21 22 23 24 25 26 27 28 29 30 31 32 33 34 35 36 37 38 39 40 41 42 43 44 45 46 47 48 49 50
000
NZUS93 KARX 070659
HRRWXR

CURRENT HOURLY OBSERVATIONS ACROSS
MUCH OF THE UPPER MISSISSIPPI VALLEY
NATIONAL WEATHER SERVICE LA CROSSE WI
100 AM CST WED DEC 07 2016


...SOUTHEAST MINNESOTA...


CITY           SKY/WX    TMP DP  RH WIND       PRES   REMARKS
ROCHESTER      NOT AVBL
ROCHESTER/MAYO NOT AVBL
WINONA         NOT AVBL
AUSTIN         FLURRIES  16   9  73 W17G23    29.93S WCI   0
ALBERT LEA     MOCLDY    18  12  79 W13G24    29.94S WCI   4
DODGE CENTER   FLURRIES  16  10  79 W18G25    29.90R WCI  -1
PRESTON        LGT SNOW  16  10  78 W16G26    29.91S WCI   0
OWATONNA       CLOUDY    16   9  73 W17G29    29.92R WCI   0
FARIBAULT      MOCLDY    16  10  79 W17G23    29.91S WCI   0
$$

...ELSEWHERE IN MINNESOTA...


CITY           SKY/WX    TMP DP  RH WIND       PRES   REMARKS
MINNEAPOLIS    NOT AVBL
INTNL FALLS    NOT AVBL
DULUTH         NOT AVBL
RED WING       CLOUDY    19   9  63 W20G25    29.88R WCI   4
REDWOOD FALLS  NOT AVBL
MANKATO        NOT AVBL
WORTHINGTON    NOT AVBL
FAIRMONT       NOT AVBL
$$

...SOUTHWEST WISCONSIN...


CITY           SKY/WX    TMP DP  RH WIND       PRES   REMARKS
LA CROSSE      NOT AVBL
PRAIRIE DU CHI MOCLDY    22  13  67 W12G20    29.98R WCI  11
BOSCOBEL       NOT AVBL
LONE ROCK      NOT AVBL
PLATTEVILLE    CLEAR     22  16  79 W16G22    29.96R WCI   8
FORT MC COY    CLOUDY    21  15  75 W9G21     29.90R WCI  11
MAUSTON-NEW LI PTSUNNY   23  14  69 W8G16     29.87R WCI  13
VIROQUA        CLOUDY    19  14  80 W13       29.88S WCI   7
WIS DELLS      CLOUDY    24  15  71 W15       29.88R WCI  11
$$

...ELSEWHERE IN WISCONSIN...


CITY           SKY/WX    TMP DP  RH WIND       PRES   REMARKS
MILWAUKEE      PTCLDY    27  17  66 W10       29.90R WCI  17
MADISON        NOT AVBL
GREEN BAY      NOT AVBL
EAU CLAIRE     NOT AVBL
BLACK RVR FLS  CLOUDY    21  12  68 W13G20    29.87R WCI   9
MEDFORD        LGT SNOW  17  10  77 W22G35    29.74R WCI  -1
WAUSAU         NOT AVBL
WIS RAPIDS     NOT AVBL
MARSHFIELD     NOT AVBL
RICE LAKE      FLURRIES  19  13  76 SW10G22   29.77R WCI   8
$$

...NORTHEAST IOWA...


CITY           SKY/WX    TMP DP  RH WIND       PRES   REMARKS
WATERLOO       NOT AVBL
DUBUQUE        NOT AVBL
DECORAH        CLOUDY    18  14  86 W8G16     29.93R WCI   7
MASON CITY     NOT AVBL
CHARLES CITY   CLOUDY    18  10  73 W16G22    29.99R WCI   3
OELWEIN        PTCLDY    18  14  86 W15       29.99R WCI   3
$$

...ELSEWHERE IN IOWA...


CITY           SKY/WX    TMP DP  RH WIND       PRES   REMARKS
DES MOINES     NOT AVBL
IOWA CITY      CLOUDY    25  16  68 W14       30.09R WCI  13
FORT DODGE     CLEAR     16   7  67 W9G17     30.07R WCI   4
MARSHALLTOWN   NOT AVBL
CEDAR RAPIDS   PTCLDY    21  16  81 W16G22    30.04R WCI   7
$$

...NORTHERN ILLINOIS...


CITY           SKY/WX    TMP DP  RH WIND       PRES   REMARKS
CHICAGO-OHARE  PTCLDY    26  18  71 W15       29.99R WCI  14
CHICAGO-MIDWAY NOT AVBL
MOLINE         PTCLDY    28  17  63 W16       30.06R WCI  16
ROCKFORD       NOT AVBL
PEORIA         NOT AVBL
$$

NOTE: "FAIR" INDICATES FEW OR NO CLOUDS BELOW 12,000 FEET WITH NO
SIGNIFICANT WEATHER AND/OR OBSTRUCTIONS TO VISIBILITY. WIND
SPEEDS ARE IN MILES-PER-HOUR.




USA.gov is the U.S. government's official web portal to all federal, state and local government web resources and services.